Regional Weather Roundup
Issued by NWS

Home | Current Version | Previous Version | Text Only | Print | Product List | Glossary Off
Versions: 1 2 3 4 5 6 7 8 9 10 11 12 13 14 15 16 17 18 19 20 21 22 23 24 25 26 27 28 29 30 31 32 33 34 35 36 37 38 39 40 41 42 43 44 45 46 47 48 49 50

000
ASUS43 KMKX 171611
RWRWI

WISCONSIN REGIONAL WEATHER ROUNDUP
NATIONAL WEATHER SERVICE MILWAUKEE/SULLIVAN WI
1100 AM CDT THU APR 17 2014

NOTE: "FAIR" INDICATES FEW OR NO CLOUDS BELOW 12,000 FEET WITH NO
SIGNIFICANT WEATHER AND/OR OBSTRUCTIONS TO VISIBILITY.

WIZ001-002-006>008-014>016-023>028-171700-
NORTHWEST WISCONSIN

CITY           SKY/WX    TMP DP  RH WIND       PRES   REMARKS
SUPERIOR ARPT  CLOUDY    32  24  74 N10       30.22R WCI  23
ASHLAND        CLOUDY    31  30  96 NW7       30.17R FOG     WCI  24
HAYWARD        CLOUDY    31  28  89 VRB3      30.16R
SIREN          CLOUDY    30  28  89 N10       30.22R WCI  21
RICE LAKE      CLOUDY    32  29  90 NW8       30.20R WCI  25
LADYSMITH      CLOUDY    34  32  94 NW8       30.14R FOG     WCI  27
EAU CLAIRE     CLOUDY    36  33  89 W7        30.18R WCI  30
MENOMONIE      CLOUDY    34  32  92 W13       30.20R WCI  25
NEW RICHMOND   CLOUDY    30  30  97 NW10      30.24R WCI  21
OSCEOLA        CLOUDY    32  29  90 N8        30.26R WCI  25
$$

WIZ003>005-009-010-017-018-171700-
NORTH CENTRAL WISCONSIN

CITY           SKY/WX    TMP DP  RH WIND       PRES   REMARKS
WOODRUFF       CLOUDY    37  34  90 SE5       30.09R WCI  33
RHINELANDER    CLOUDY    33  31  92 SE3       30.09R
EAGLE RIVER    CLOUDY    33  32  94 SE3       30.09R
LAND O LAKES   CLOUDY    33  31  90 S5        30.10R WCI  29
PHILLIPS       CLOUDY    33  32  96 CALM      30.10R FOG
TOMAHAWK       CLOUDY    34  31  90 CALM      30.10R FOG
MEDFORD        CLOUDY    34  32  93 S3        30.11R FOG
MERRILL        CLOUDY    36  33  88 CALM      30.10R
$$

WIZ029-030-035-036-043>047-171700-
CENTRAL WISCONSIN

CITY           SKY/WX    TMP DP  RH WIND       PRES   REMARKS
WAUSAU         CLOUDY    38  33  82 CALM      30.09R
MOSINEE        PTSUNNY   39  36  87 E3        30.12R
MARSHFIELD     CLOUDY    43  36  76 W9        30.11R
STEVENS POINT  MOSUNNY   41  33  74 CALM      30.11R
WAUPACA        SUNNY     48  34  57 SW6       30.10R
WAUTOMA        PTSUNNY   50  37  62 W12       30.10R
WISC RAPIDS    PTSUNNY   49  34  56 NW13      30.11R
CAMP DOUGLAS   PTSUNNY   52  37  58 NW13      30.10R
$$

WIZ011>013-019>022-031-037>040-048>050-171700-
NORTHEAST WISCONSIN

CITY           SKY/WX    TMP DP  RH WIND       PRES   REMARKS
ANTIGO         CLOUDY    34  31  90 S6        30.10R WCI  29
STURGEON BAY   CLOUDY    36  28  75 SE10      30.14S WCI  28
GREEN BAY      CLOUDY    42  34  73 S9        30.11R
MANITOWOC      CLOUDY    42  34  73 S18G26    30.13R
APPLETON       CLOUDY    43  32  65 SE7       30.09R
CLINTONVILLE   SUNNY     43  34  70 SE8       30.09S
OSHKOSH        CLOUDY    46  34  62 SW12      30.10R
$$

WIZ032>034-041-042-053>061-171700-
SOUTHWEST WISCONSIN

CITY           SKY/WX    TMP DP  RH WIND       PRES   REMARKS
LA CROSSE      CLOUDY    41  34  76 NW12      30.18R
SPARTA         CLOUDY    46  35  65 W13       30.15R
VIROQUA        CLOUDY    40  37  87 W13       30.14R WCI  33
BOSCOBEL       CLOUDY    44  34  67 W10       30.18R
PRAIRIE DU CHI CLOUDY    42  33  70 W9        30.19R
PLATTEVILLE    CLOUDY    40  34  78 W12       30.19R WCI  33
$$

WIZ056-057-062-063-064-067-068-171700-
SOUTH CENTRAL WISCONSIN

CITY           SKY/WX    TMP DP  RH WIND       PRES   REMARKS
BARABOO/DELLS  PTSUNNY   46  36  68 W8        30.12R
LONE ROCK      CLOUDY    43  36  76 SW10      30.16R
WATERTOWN      CLOUDY    44  37  77 SW9       30.13R
MADISON        CLOUDY    43  36  76 VRB3      30.14R
MIDDLETON      CLOUDY    45  35  69 W13       30.14R
MONROE         CLOUDY    42  40  94 SW16      30.16R
JANESVILLE     CLOUDY    46  36  66 W14       30.15R
$$

WIZ051-052-058>065-066-070>072-171700-
SOUTHEAST WISCONSIN

CITY           SKY/WX    TMP DP  RH WIND       PRES   REMARKS
MILWAUKEE      PTSUNNY   52  36  54 W17G24    30.14R
WAUKESHA       CLOUDY    46  36  66 SW14      30.13R
MILWAUKEE/TIMM MOSUNNY   52  34  50 SW16G23     N/A
RACINE         PTSUNNY   52  38  58 W16G24    30.15R
BURLINGTON     CLOUDY    48  37  64 SW17      30.14R
KENOSHA        MOSUNNY   51  40  65 W16G25    30.14R
FOND DU LAC    CLOUDY    47  35  63 SW14G21   30.10R
SHEBOYGAN      CLOUDY    46  36  68 S10       30.11R
WEST BEND      CLOUDY    46  32  57 SW13G18   30.11R
JUNEAU         CLOUDY    44  35  69 SW14      30.13R
$$

LSZ147-162-171700-
LAKE SUPERIOR

STATION/POSITION TIME  TEMP    WIND        PRES    WAVE
                       AIR SEA DIR/SP/G            HT/PER
                 (UTC) (F)     (DEG/KT/KT) (MB)    (FT/S)
DEVILS ISLAND    1600   31      90/  6/  8 1022.5R
PORT WING        1540   31     350/  7/  9 1022.4R
SAXON HARBOR     1500             CALM     1020.3R
$$

LMZ867-665-643>646-171700-
LAKE MICHIGAN

STATION/POSITION TIME  TEMP    WIND        PRES    WAVE
                       AIR SEA DIR/SP/G            HT/PER
                 (UTC) (F)     (DEG/KT/KT) (MB)    (FT/S)
NORTHPORT PIER   1500   34     130/ 13/ 16 1021.7R
SISTER BAY       1523   35     150/  8/ 15   N/A
KEWAUNEE LAKESHO 1500   37     170/ 11/ 14 1021.1
SHEBOYGAN LAKESH 1600   38     180/ 15/ 16 1020.9R
PORT WASHINGTON  1500   41     190/  9/ 12 1020.3S
MILWAUKEE LAKESH 1500   49     230/ 16/ 20   N/A
KENOSHA   LAKESH 1600   51     240/ 14/ 20   N/A
$$

TC  - TEMPERATURE IN CELSIUS
VSB - VISIBILITY IN STATUTE MILES
WCI - WIND CHILL INDEX
HX  - HEAT INDEX




USA.gov is the U.S. government's official web portal to all federal, state and local government web resources and services.